Regional Weather Roundup
Issued by NWS Goodland, KS

Home | Current Version | Previous Version | Graphics & Text | Print | Product List | Glossary On
Versions: 1 2 3 4 5 6 7 8 9 10 11 12 13 14 15 16 17 18 19 20 21 22 23 24 25 26 27 28 29 30 31 32 33 34 35 36 37 38 39 40 41 42 43 44 45 46 47 48 49 50
000
ASUS43 KGLD 020459
RWRGLD

GOODLAND FORECAST AREA HOURLY WEATHER ROUNDUP
NATIONAL WEATHER SERVICE GOODLAND KS
1100 PM MDT SUN MAY 01 2016

...OFFICIAL OBSERVATIONS...

CITY           SKY/WX    TMP DP  RH WIND       PRES   REMARKS
GOODLAND KS    CLEAR     33  30  88 NW9       30.25S
HILL CITY KS   PTCLDY    37  36  96 W5        30.24S
IMPERIAL NEB   CLEAR     39  32  76 NW10      30.25S
MCCOOK NEB     CLOUDY    38  35  89 CALM      30.23R
AKRON CO       CLOUDY    32  24  72 W5        30.28S
BURLINGTON CO  CLEAR     33  26  75 NW8       30.27S
LIMON CO       CLOUDY    26  24  92 CALM      30.29S
$$

...UNOFFICIAL OBSERVATIONS...

CITY           SKY/WX    TMP DP  RH WIND       PRES   REMARKS
COLBY KS       CLOUDY    43  39  87 NW6       30.25S
LENORA KS        N/A     40  32  73 MISG        N/A
NORTON KS      CLEAR     37  34  87 SW6       30.23R
SHARON SPRINGS   N/A     38  33  82 NW10        N/A
TRIBUNE KS     CLOUDY    39  34  81 NW8       30.28S
KIT CARSON CO    N/A     31  27  84 MISG        N/A
YUMA CO          N/A     30  27  88 CALM        N/A
$$




USA.gov is the U.S. government's official web portal to all federal, state and local government web resources and services.